{"data":{"norad_id":63705,"epoch":"2026-09-20T14:25:21.584928Z","epoch_age_seconds":143730,"freshness":"FRESH","line1":"1 63705U 25087J   26263.60094427  .00014102  00000+0  42755-3 0  9997","line2":"2 63705  53.1592  33.3466 0000835  84.0383 276.0715 15.34411207 79041","mean_motion":15.34411207,"eccentricity":8.35e-5,"inclination_deg":53.1592,"raan_deg":33.3466,"arg_perigee_deg":84.0383,"mean_anomaly_deg":276.0715,"bstar":0.00042755,"rev_number":7904,"period_min":93.847072638072,"perigee_km":462.09872346535,"apogee_km":463.2411382228,"semimajor_km":6840.8069308441,"source":"CELESTRAK","updated_at":"2026-09-21T09:00:35.063641Z"}}